Location: Copeville
(33.0796°N, 96.4155°W)
Time: 12:40:23
(UTC+00:00)

JUGNU - Visible Passes

Search period start: 20 April 2024 00:00
Search period end: 30 April 2024 00:00
Orbit: 835 x 862 km, 20.0° (Epoch: 20 April)

Date Brightness Start Highest point End Pass type
(mag) Time Alt. Az. Time Alt. Az. Time Alt. Az.
20 Apr ? 01:47:06 10° SW 01:51:31 22° S 01:55:05 13° SE visible
20 Apr ? 03:35:48 10° SW 03:36:54 14° SW 03:36:54 14° SW visible
21 Apr ? 01:31:20 10° SW 01:35:45 22° S 01:40:10 10° SE visible
21 Apr ? 03:20:09 10° SW 03:22:13 16° SSW 03:22:13 16° SSW visible
22 Apr ? 03:04:32 10° SW 03:07:31 17° SSW 03:07:31 17° SSW visible
23 Apr ? 02:48:56 10° SW 02:52:31 17° SSW 02:52:48 16° S visible
24 Apr ? 02:33:23 10° SW 02:36:43 16° SSW 02:38:05 14° S visible
25 Apr ? 02:17:52 10° SW 02:20:57 15° SSW 02:23:22 12° SSE visible
26 Apr ? 02:02:24 10° SW 02:05:09 14° SSW 02:07:55 10° SSE visible
27 Apr ? 01:47:01 10° SW 01:49:22 12° SSW 01:51:44 10° S visible
28 Apr ? 01:31:46 10° SW 01:33:34 11° SSW 01:35:23 10° S visible
